"Pseudo-MPEC" for C13RVP1

Created 2020 Mar 26 23:07:05 UT using Find_Orb

Click here for an explanation of pseudo-MPECs

 
 Astrometry: 
     C13RVP1  C2020 03 25.38762 13 15 15.19 -10 44 25.2    ~3PA7 18.8 GVNEOCP703
     C13RVP1  C2020 03 25.39284 13 15 24.26 -10 42 22.4    ~3PA7 19.3 GVNEOCP703
     C13RVP1  C2020 03 25.39806 13 15 33.25 -10 40 18.9    ~3PA7 18.9 GVNEOCP703
     C13RVP1  C2020 03 25.40329 13 15 42.38 -10 38 13.9    ~3PA7 18.9 GVNEOCP703
     C13RVP1  C2020 03 25.46440 13 17 29.89 -10 13 28.6    ~3PBb 18.9 GVNEOCPI52
     C13RVP1  C2020 03 25.46459 13 17 30.21 -10 13 23.7    ~3PBb 18.9 GVNEOCPI52
     C13RVP1  C2020 03 25.46478 13 17 30.54 -10 13 19.1    ~3PBb 19.3 GVNEOCPI52
     C13RVP1 KC2020 03 25srdL884Uf_^Z[ko*)uV_YFEu?t+8vX?nvE-i3bUMK-[=?Qu9ev^`L01
     C13RVP1 IC2020 03 25;3kS/$L$LeC9Myf'$s=uO\u[25F.M,I:QVJ/)(dUm-nt`5!ebr`8L01
     C13RVP1  C2020 03 25.93372 13 33 20.01 -06 46 38.4    ~3PNM 18.7 VVNEOCP033
     C13RVP1  C2020 03 25.93418 13 33 20.97 -06 46 25.0    ~3PNM 18.7 VVNEOCP033
     C13RVP1  C2020 03 25.93465 13 33 21.94 -06 46 11.8    ~3PNM 18.8 VVNEOCP033
     C13RVP1 KC2020 03 25.97045 13 34 39.20 -06 28 34.4    ~3PNb 18.5 VqNEOCPI93
     C13RVP1 KC2020 03 25.97202 13 34 42.43 -06 27 49.1    ~3PNb 18.7 VqNEOCPI93
     C13RVP1 KC2020 03 25.97360 13 34 45.70 -06 27 03.2    ~3PNb 18.9 VqNEOCPI93
     C13RVP1 KC2020 03 25.97671 13 34 52.13 -06 25 32.7    ~3PNb 18.7 VqNEOCPI93
     C13RVP1 KC2020 03 26.00009013 35 40.44 -06 14 28.9    ~3Q0M 18.2 GVNEOCPJ95
     C13RVP1 KC2020 03 26.00160813 35 43.63 -06 13 44.3    ~3Q0M 18.7 GVNEOCPJ95
     C13RVP1 KC2020 03 26.00342313 35 47.40 -06 12 50.9    ~3Q0M 18.6 GVNEOCPJ95
     C13RVP1 KC2020 03 26.00596513 35 52.74 -06 11 35.5    ~3Q0M 18.7 GVNEOCPJ95
     C13RVP1 KC2020 03 26U6MgKsORYxm0Tqt7y^FFk;t,*OqlH1^#!1D*sYcKLNYCHqv`=B+2K87
     C13RVP1 KC2020 03 267kb/9tGpOYnV=A5'l;/L81w4q:0'nCKV,?*T5Zg^6*%KeL@txX_OK87
     C13RVP1 KC2020 03 26l0igJ([H-7TLBbbV)Fl4%qSQ7()ogXaR=?LyTt,AstrometryE)YK87
     C13RVP1 KC2020 03 26AEuwOui=:p,Qx5@n;rpX7v1Eqrj+2y/NUSEUmredacted;ay:QyZZ99
     C13RVP1 KC2020 03 26E;RoMCk_hb1YEBTDQ-j,U`HTy-5xHAGv?85aUtK?A8tfi[0OjpQDZ99
     C13RVP1 KC2020 03 26J*,9(T[)*TBs;Qs6iUD'OdpeNUxQTH\`bnwHyQDLlu(Qi8OqgmA,Z99
     C13RVP1  C2020 03 26.11881 13 39 50.31 -05 15 00.9    ~3Q4M 20.7 VVNEOCP033
     C13RVP1  C2020 03 26.11926 13 39 51.31 -05 14 47.0    ~3Q4M 20.7 VVNEOCP033
     C13RVP1  C2020 03 26.11972 13 39 52.29 -05 14 32.7    ~3Q4M 20.9 VVNEOCP033
     C13RVP1 KC2020 03 26AAb?MBcV^'J5)#f'P2VPo.?-]jN+2[L-wFZ9BCI%s;bw[jMGFW.P850
     C13RVP1 KC2020 03 26#FARQS3#`0#u#ErL%wEt:vU^#W*Zsm1w9ROj_GyKN]JG/Px.J8_Z850
     C13RVP1 KC2020 03 26vb7[wdNb;AnD1Sclick`X,@][#.(f8Os4vIPg*',2iGS]ldj,wwM850
     C13RVP1 KC2020 03 26ZX*B:qZtwmhM=o!!hiHAM:`qG7nNKXHt)(o)Yqa3jVij1W3YR:Nl850
     C13RVP1 KC2020 03 262O)ZWU;5#here5s_^s!NZhrjW!hO4Aj3VEq6Ql)geBKAoofor)ogH21
     C13RVP1 KC2020 03 26s]No3=jW3#3YtI5!']BlZG4ON]Yw%,Wb5LuR,et?xHi4#D;:@btgH21
     C13RVP1 KC2020 03 26P$og7FlC$UXP*dG7Pu0(CSw2;qNi_$m.Eexplanation*U8(YG`cH21
     C13RVP1 KC2020 03 26+%0vU_-]]`T]8fR/:BHriW=N2/VEVp.usl*XyB;:PS,+o0'r(q)yH21
     C13RVP1  C2020 03 26.93205 14 14 08.22 +02 35 19.1    ~3QMb 18.4 VVNEOCP033
     C13RVP1  C2020 03 26.93244 14 14 09.31 +02 35 34.5    ~3QMb 18.4 VVNEOCP033
     C13RVP1  C2020 03 26.93284 14 14 10.40 +02 35 50.0    ~3QMb 18.5 VVNEOCP033

Station data:
(033) Karl Schwarzschild Observatory, Tautenburg  (N50.980140 E11.711240)
   Germany. 1.3-m Schmidt.
(703) Catalina Sky Survey  (N32.417006 W110.732640)  US/Arizona.  Observers
   T. A. Pruyne, B. M. Africano, E. J. Christensen, G. A. Farneth, D. C.
   Fuls, A. R. Gibbs, A. D. Grauer, H. Gröller, J. A. Johnson, R. A.
   Kowalski, S. M. Larson, G. J. Leonard, D. Rankin, R. L. Seaman, F. C.
   Shelly. 0.68 m Schmidt + 10K CCD.
(850) Cordell-Lorenz Observatory, Sewanee  (N35.204094 W85.919800)
   US/Tennessee.  Observer D. T. Durig. 0.3-m f/5.0 Schmidt-Cassegrain + CCD.
(H21) Astronomical Research Observatory, Westfield  (N39.483057 W87.968270)
   US/Illinois. 0.76-m f/3.0 astrograph + CCD.
(I52) Steward Observatory, Mt. Lemmon Station  (N32.442547 W110.788920)
   US/Arizona.  Observers T. A. Pruyne, B. M. Africano, E. J. Christensen, G.
   A. Farneth, D. C. Fuls, A. R. Gibbs, A. D. Grauer, H. Gröller, J. A.
   Johnson, R. A. Kowalski, S. M. Larson, G. J. Leonard, D. Rankin, R. L.
   Seaman, F. C. Shelly. 1.0-m reflector + CCD.
(I93) St Pardon de Conques  (N44.558710 W0.203000)  France.  Observer F.
   Losse. 0.40-m f/3.7 reflector + CCD.
(J95) Great Shefford  (N51.474969 W1.447003)  UK.  Observer P. Birtwhistle.
   0.40-m f/6.0 Schmidt-Cassegrain + CCD.
(K87) Dettelbach Vineyard Observatory  (N49.807693 E10.170110)  Germany.
(L01) Višnjan Observatory, Tičan  (N45.290900 E13.749300)  Croatia.
   Observers K. Korlević, E. Pettarin. Measurer E. Pettarin. 1.0-m f/2.9
   reflector + CCD.
(Z99) Clixby Observatory, Cleethorpes  (N53.546062 W0.021260)  UK.

Orbital elements:  C13RVP1
   Perihelion 2020 May 6.949151 +/- 0.0217 TT = 22:46:46 (JD 2458976.449151)
Epoch 2020 Mar 26.0 TT = JDT 2458934.5   Earth MOID: 0.0209   AutoNEOCP
M 339.39118363 +/- 0.052            (J2000 ecliptic)
n   0.49128089 +/- 0.000991         Peri.   53.13279 +/- 0.010
a   1.59067992 +/- 0.00214          Node   185.70901 +/- 0.0007
e   0.4319991 +/- 0.000816          Incl.   16.32518 +/- 0.021
P   2.01/732.76d           H 25.8   G  0.15   U  8.1  
q 0.90350762 +/- 8.48e-5    Q 2.27785222 +/- 0.00437
From 40 observations 2020 Mar. 25-26 (37.1 hr); mean residual 0".50
Residuals in arcseconds: 
200325 703  .40-  2.8+    200325 I93  .17-  .30-    200326 033  .09-  .31-    
200325 703  .35+  .98+    200325 I93  .54-  .39-    200326 850  .35-  1.0+    
200325 703  .34-  .40-    200326 J95  .16+  .18-    200326 850  .23+  .22+    
200325 703  .51+  .80-    200326 J95  .29+  .21-    200326 850  .32+  .71+    
200325 I52  .18+  .78-    200326 J95  .23-  .21-    200326 850  .44+  .00     
200325 I52  .10-  .55-    200326 J95  .11-  .34+    200326 H21  .02+  .12+    
200325 I52  .24-  .63-    200326 K87  .76-  .20+    200326 H21  .04+  .13+    
200325 L01  .05+  .30-    200326 K87  .47-  .53+    200326 H21  .03-  .03+    
200325 L01  .32-  .39+    200326 K87  .43-  .17+    200326 H21  .28-  .05+    
200325 033  .27-  .49-    200326 Z99  .74+  .31+    200326 033  .36-  .32-    
200325 033  .09-  .30-    200326 Z99  .57+  .44+    200326 033  .02+  .00     
200325 033  .08-  .60-    200326 Z99  .82+  .02-    200326 033  .01-  .02+    
200325 I93  .35+  .15+    200326 033  .12-  .59-    
200325 I93  .05-  .22-    200326 033  .21+  .50-    

Ephemerides (geocentric):
Date (UTC) HH   RA              Dec         delta   r     elong  mag " sig PA
---- -- -- --  -------------   -----------  ------ ------ -----  --- ---- ---
2020 03 26 23  14 15 12.465   +02 56 32.22  .02596 1.0208 151.6 19.2 .516 149
2020 03 27 00  14 17 10.266   +03 23 39.50  .02583 1.0206 151.1 19.2 .527 149
2020 03 27 01  14 19 09.317   +03 51 01.69  .02571 1.0203 150.5 19.2 .537 149
2020 03 27 02  14 21 09.622   +04 18 38.41  .02559 1.0201 150.0 19.2 .547 149
2020 03 27 03  14 23 11.180   +04 46 29.26  .02547 1.0199 149.4 19.2 .558 149
2020 03 27 04  14 25 13.992   +05 14 33.78  .02536 1.0197 148.8 19.2 .569 150
2020 03 27 05  14 27 18.058   +05 42 51.50  .02525 1.0195 148.3 19.2 .580 150
2020 03 27 06  14 29 23.376   +06 11 21.93  .02515 1.0193 147.7 19.2 .591 150
2020 03 27 07  14 31 29.945   +06 40 04.52  .02504 1.0191 147.1 19.2 .602 151
2020 03 27 08  14 33 37.761   +07 08 58.73  .02495 1.0188 146.5 19.2 .614 151
2020 03 27 09  14 35 46.820   +07 38 03.96  .02485 1.0186 145.8 19.3 .625 152
2020 03 27 10  14 37 57.118   +08 07 19.59  .02476 1.0184 145.2 19.3 .637 152
2020 03 27 11  14 40 08.648   +08 36 44.97  .02468 1.0182 144.6 19.3 .649 153
2020 03 27 12  14 42 21.404   +09 06 19.42  .02460 1.0180 143.9 19.3 .661 154
2020 03 27 13  14 44 35.378   +09 36 02.24  .02452 1.0178 143.3 19.3 .673 154
2020 03 27 14  14 46 50.561   +10 05 52.71  .02445 1.0176 142.6 19.3 .686 155
2020 03 27 15  14 49 06.942   +10 35 50.06  .02438 1.0174 142.0 19.3 .699 156
2020 03 27 16  14 51 24.511   +11 05 53.51  .02431 1.0171 141.3 19.3 .712 157
2020 03 27 17  14 53 43.256   +11 36 02.27  .02425 1.0169 140.7 19.3 .725 158
2020 03 27 18  14 56 03.162   +12 06 15.49  .02420 1.0167 140.0 19.3 .739 158
2020 03 27 19  14 58 24.215   +12 36 32.34  .02415 1.0165 139.3 19.4 .753 159
2020 03 27 20  15 00 46.399   +13 06 51.95  .02410 1.0163 138.6 19.4 .767 160
2020 03 27 21  15 03 09.697   +13 37 13.44  .02406 1.0161 137.9 19.4 .781 161
2020 03 27 22  15 05 34.091   +14 07 35.92  .02402 1.0159 137.2 19.4 .796 162
2020 03 27 23  15 07 59.562   +14 37 58.45  .02398 1.0157 136.5 19.4 .812 163
2020 03 28 00  15 10 26.087   +15 08 20.14  .02395 1.0155 135.8 19.4 .827 164
2020 03 28 01  15 12 53.646   +15 38 40.04  .02393 1.0153 135.1 19.5 .843 165
2020 03 28 02  15 15 22.214   +16 08 57.21  .02391 1.0150 134.4 19.5 .859 166
2020 03 28 03  15 17 51.768   +16 39 10.72  .02389 1.0148 133.7 19.5 .876 168
2020 03 28 04  15 20 22.281   +17 09 19.61  .02388 1.0146 133.0 19.5 .893 169
2020 03 28 05  15 22 53.726   +17 39 22.93  .02387 1.0144 132.3 19.5 .910 170
2020 03 28 06  15 25 26.075   +18 09 19.75  .02387 1.0142 131.5 19.5 .928 171
2020 03 28 07  15 27 59.298   +18 39 09.13  .02387 1.0140 130.8 19.6 .946 172
2020 03 28 08  15 30 33.365   +19 08 50.12  .02387 1.0138 130.1 19.6 .964 173
2020 03 28 09  15 33 08.244   +19 38 21.81  .02388 1.0136 129.4 19.6 .983 174
2020 03 28 10  15 35 43.900   +20 07 43.29  .02390 1.0134 128.6 19.6 1.00 175
2020 03 28 11  15 38 20.302   +20 36 53.65  .02392 1.0132 127.9 19.6 1.02 176
2020 03 28 12  15 40 57.411   +21 05 52.02  .02394 1.0129 127.2 19.7 1.04 177
2020 03 28 13  15 43 35.194   +21 34 37.53  .02397 1.0127 126.5 19.7 1.06 179
2020 03 28 14  15 46 13.611   +22 03 09.33  .02400 1.0125 125.8 19.7 1.08   0
2020 03 28 15  15 48 52.625   +22 31 26.62  .02404 1.0123 125.0 19.7 1.10   1
2020 03 28 16  15 51 32.197   +22 59 28.59  .02408 1.0121 124.3 19.8 1.12   2
2020 03 28 17  15 54 12.285   +23 27 14.46  .02412 1.0119 123.6 19.8 1.14   3
2020 03 28 18  15 56 52.850   +23 54 43.51  .02417 1.0117 122.9 19.8 1.17   4
2020 03 28 19  15 59 33.850   +24 21 55.02  .02423 1.0115 122.2 19.8 1.19   5
2020 03 28 20  16 02 15.241   +24 48 48.29  .02428 1.0113 121.5 19.9 1.21   6
2020 03 28 21  16 04 56.981   +25 15 22.69  .02435 1.0111 120.8 19.9 1.23   7
2020 03 28 22  16 07 39.027   +25 41 37.59  .02441 1.0109 120.1 19.9 1.25   8